Tracking 25195 objects as of 20-Jan-2022
HD Live streaming from Space Station
objects crossing your sky now

H-2A R/B

Track H-2A R/B now!
10-day predictions


NORAD ID: 43496
Int'l Code: 2018-052B
Perigee: 477.4 km
Apogee: 497.8 km
Inclination: 97.2 °
Period: 94.2 minutes
Semi major axis: 6858 km
RCS: Unknown
Launch date: June 12, 2018
Source: Japan (JPN)
Launch site: TANEGASHIMA SPACE CENTER (TNSTA)

Note: This is a ROCKET BODY
aabbcc
Your satellite tracking list
Your tracking list is empty




NASA's NSSDC Master Catalog

Two Line Element Set (TLE):
1 43496U 18052B   21250.93753361 0.00002400  00000-0  86630-4 0    05
2 43496  97.2400 344.7265 0014871 164.8327 195.1672 15.28428758    04
Source of the keplerian elements: McCants